Temp
9 9 8 10 9 10 10 10 9 12 15 14 13 13 15 16 16 16 16 16 17 17 16 16 16 16 15 15 15 14 14 14 14 13 13 13 13 12 12 12 12 12 12 12
10 9 11 11 10 10 10 9 9 11 13 13 12 13 14 15 16 16 17 16 15 15 15 15 15 15 15 15 15 14 14 14 14 14 14 13 13 12 12 12 12 12 11 11
10 10 11 11 10 10 11 11 11 11 13 13 13 12 13 15 18 16 17 17 17 16 16 14 14 14 15 15 14 14 14 14 14 14 13 13 13 12 12 11 11 11 11 11
9 9 10 9 9 9 10 12 11 11 11 11 13 12 14 15 18 16 17 17 16 15 15 14 14 13 14 15 15 14 14 14 14 14 14 13 13 12 12 12 11 11 11 11
10 10 10 10 10 9 10 11 9 11 11 12 12 12 16 16 16 17 17 16 16 15 14 14 14 14 14 15 14 14 14 14 13 13 13 13 12 12 12 12 11 11 11 11
10 10 10 10 11 11 11 11 12 12 12 12 13 13 13 15 17 16 17 16 16 15 14 14 14 14 14 14 14 14 14 13 13 13 13 12 12 12 12 12 11 11 11 11
12 11 12 11 11 12 11 11 12 13 11 11 14 14 15 17 18 17 17 16 16 15 14 13 13 13 13 13 14 14 13 13 13 13 12 12 12 12 12 12 11 11 11 11
11 11 12 12 12 13 12 12 12 12 12 12 14 13 17 16 17 19 18 16 16 15 14 14 13 13 13 13 13 13 13 13 12 12 12 12 12 12 12 11 11 11 11 11
10 10 14 14 14 15 15 12 14 13 13 12 12 16 16 15 16 16 16 15 15 14 14 12 12 12 12 12 13 13 13 13 12 12 12 12 12 12 11 11 11 11 11 10
13 11 14 15 15 15 15 14 13 11 13 14 13 15 13 15 15 16 15 14 14 12 11 11 11 12 12 13 13 13 13 13 12 12 12 12 12 11 11 11 11 11 10 10
14 13 13 14 15 14 14 13 13 12 11 13 14 15 16 15 13 16 15 15 13 12 11 10 9 12 13 13 13 12 12 12 12 12 12 12 12 11 11 11 10 10 10 10
14 13 10 14 15 15 14 15 14 13 12 11 12 14 13 14 14 13 13 12 11 11 10 9 9 10 11 12 12 12 12 12 12 12 12 11 11 11 11 10 10 10 10 10
13 12 9 12 13 14 14 15 16 15 12 12 12 15 14 12 13 13 12 11 11 10 9 8 8 9 10 11 11 12 12 12 11 11 11 11 11 10 10 10 10 9 9 9
12 12 12 10 12 12 12 14 15 15 12 14 13 15 15 14 12 11 10 9 9 10 10 8 7 8 10 11 11 11 11 11 11 11 11 10 10 10 10 9 9 9 9 9
12 12 12 12 12 13 13 13 15 15 15 14 15 14 15 14 11 11 10 10 10 10 9 9 8 7 9 10 11 11 10 10 10 10 10 10 9 9 9 9 9 9 9 9
13 12 12 11 13 12 12 12 13 15 15 15 15 17 14 13 11 11 11 11 11 10 10 9 8 8 9 10 10 10 10 10 10 10 9 9 9 9 9 9 8 8 8 8
12 11 10 10 12 12 12 12 13 15 15 16 16 17 16 14 14 12 11 12 11 11 10 9 9 9 10 10 10 10 9 9 9 9 8 8 8 8 8 8 8 8 8 7
11 11 9 9 10 10 14 13 14 15 16 16 16 16 15 14 14 13 11 11 10 10 10 9 9 10 10 10 10 9 9 9 9 8 8 8 8 8 8 8 8 7 7 6
10 10 10 10 9 12 15 14 15 15 16 14 15 15 14 14 14 15 12 12 11 10 9 9 11 10 10 10 9 9 8 8 8 7 7 7 7 7 7 7 7 6 6 6
11 10 10 9 11 12 15 13 13 14 14 13 14 14 13 13 13 12 11 11 10 10 11 10 10 10 10 9 9 8 8 8 7 7 7 7 7 7 7 6 6 6 5 5
8 9 9 9 10 11 13 13 12 15 15 13 12 12 13 11 10 9 8 7 8 9 8 9 9 9 8 8 8 7 7 7 7 7 7 7 6 6 6 6 5 5 4 4
9 8 8 9 10 10 13 13 15 13 12 12 11 11 9 8 8 7 7 7 7 7 7 8 7 7 8 8 8 7 7 7 7 7 6 6 6 6 5 5 5 4 4 3
10 10 10 10 11 12 11 13 12 11 11 11 10 8 8 7 7 6 5 5 5 6 5 6 7 7 7 7 8 7 6 6 6 6 6 6 5 5 4 4 4 3 3 3
11 9 10 11 13 11 12 12 11 12 10 10 9 8 7 6 6 5 5 4 4 5 5 6 6 5 6 7 7 7 6 6 6 6 5 5 5 4 4 4 3 3 2 2
11 10 10 9 10 11 11 10 10 9 8 9 9 8 7 6 5 5 4 4 5 5 5 6 6 6 6 6 6 6 6 6 5 5 4 4 4 3 3 3 3 2 2 1
8 10 11 12 12 11 11 11 9 8 8 7 8 7 6 6 5 4 3 5 5 5 6 5 5 5 5 6 5 5 5 5 5 4 4 4 3 3 3 2 2 3 2 1
Height
806 806 809 802 806 801 800 802 802 791 781 784 784 785 770 766 769 765 763 764 768 771 776 781 788 794 798 802 806 808 812 815 816 819 821 825 824 827 827 830 830 830 832 833
804 803 794 794 799 800 800 803 799 793 786 785 784 777 763 765 765 759 760 761 767 771 777 782 787 791 795 799 804 807 811 813 815 817 820 823 825 825 826 829 830 830 832 833
800 792 790 792 795 793 788 788 788 788 779 778 781 774 767 759 754 754 753 753 758 762 770 778 785 789 793 796 800 805 809 811 814 816 819 821 824 824 825 828 829 829 831 832
800 793 791 791 792 794 786 776 781 779 782 774 770 774 756 754 746 753 752 753 758 765 771 777 783 788 791 794 798 804 807 810 811 815 817 820 822 822 824 826 827 829 831 831
791 786 784 783 780 782 774 773 775 765 770 771 767 775 742 746 750 749 746 749 755 761 766 772 778 783 789 792 795 801 805 808 810 814 816 819 821 822 824 825 826 829 829 829
784 782 784 779 773 771 768 766 752 755 757 758 753 758 751 745 736 745 743 745 750 757 764 769 776 782 787 791 794 799 803 806 809 812 815 817 819 821 822 824 826 828 827 828
777 778 773 773 772 767 771 769 761 755 768 770 745 751 732 720 726 733 737 742 746 752 760 766 772 778 784 787 791 796 800 804 808 811 813 816 818 819 820 821 825 826 826 826
785 781 768 765 763 758 763 761 764 757 762 760 739 751 725 723 719 717 723 733 741 749 755 761 767 774 780 783 788 792 797 802 806 809 812 814 816 817 819 821 823 824 825 826
790 782 756 757 752 751 748 763 752 755 750 752 754 730 723 720 722 724 729 734 741 746 752 758 765 770 775 780 785 790 795 800 804 807 810 812 814 815 817 819 822 823 823 824
776 781 757 750 750 748 747 751 761 765 757 747 749 737 736 727 728 724 733 736 739 746 752 758 763 768 773 779 785 790 795 798 802 806 809 810 812 815 816 819 821 822 822 823
770 772 766 755 752 752 752 757 758 764 768 758 750 737 725 726 728 719 726 730 737 744 751 757 763 768 773 779 784 789 794 798 801 805 807 809 812 814 816 818 820 820 821 821
769 772 784 759 747 747 749 748 751 759 765 763 761 738 727 724 725 727 730 738 742 745 753 759 764 769 774 779 784 789 793 796 800 803 805 808 811 813 815 817 818 819 819 820
772 773 793 766 761 751 752 744 743 748 764 761 758 740 726 727 728 732 734 740 746 752 758 763 768 773 776 781 785 789 792 795 799 802 804 808 810 812 814 815 816 817 818 818
773 774 774 790 769 765 762 749 743 743 766 753 752 741 730 729 734 740 745 748 752 756 760 765 771 775 778 782 786 789 793 796 799 802 805 807 809 811 813 814 815 816 817 817
772 776 772 767 764 759 758 753 745 744 745 753 739 738 728 730 738 741 746 751 754 759 763 767 772 776 779 783 787 790 793 796 799 802 804 806 809 811 813 814 815 815 816 816
768 774 769 771 756 759 760 753 750 743 739 740 735 729 728 731 738 744 747 750 755 759 762 767 772 776 779 782 786 791 794 797 800 802 803 806 809 811 813 814 814 815 815 815
771 775 782 777 762 760 760 745 743 738 734 731 734 730 727 733 736 741 747 748 753 757 761 766 771 774 778 782 786 790 794 797 799 801 804 807 810 812 813 814 814 814 815 814
776 772 785 785 771 779 739 734 731 730 725 729 728 728 731 732 733 737 741 747 752 756 760 766 770 775 779 783 787 791 794 796 799 802 805 808 810 812 813 814 814 813 813 812
776 777 781 781 782 756 732 735 733 733 729 733 728 728 733 733 735 736 739 741 746 752 758 763 768 774 779 783 788 791 794 797 800 803 806 808 810 811 812 812 812 812 811 809
772 776 782 784 770 758 737 737 735 733 740 735 732 733 735 736 744 744 740 741 746 751 757 764 770 776 780 785 789 791 795 798 801 804 807 809 810 810 811 811 811 809 808 807
784 781 782 784 780 758 738 737 737 737 741 738 737 737 737 742 746 745 743 745 748 753 760 766 772 777 782 787 790 793 796 799 802 805 807 809 809 810 810 809 808 807 806 805
777 784 783 782 776 773 739 739 736 740 740 739 741 742 745 747 749 750 749 752 754 759 765 769 774 780 785 788 791 794 798 800 803 805 807 808 808 808 808 807 807 806 805 802
769 764 764 766 757 741 741 738 738 739 741 741 743 745 746 750 753 755 758 759 761 764 769 773 777 783 788 791 793 796 799 801 803 805 806 807 807 808 807 806 805 802 800 798
755 759 759 754 738 739 736 738 738 738 741 742 742 745 747 752 755 759 761 764 766 769 773 776 781 785 789 793 795 797 800 802 803 805 806 806 806 805 805 804 802 801 798 795
751 753 753 754 741 738 734 735 737 740 742 742 744 745 748 752 757 760 763 766 769 772 776 780 783 787 791 794 797 799 801 802 804 804 805 804 804 803 802 801 799 797 796 793
750 744 744 739 732 733 733 732 733 738 741 742 743 747 749 752 756 760 765 767 770 774 779 783 787 789 792 795 797 799 801 802 803 803 803 802 802 801 800 799 796 795 792 789
Wind_Speed
3 3 7 8 11 9 2 5 8 3 4 3 5 9 20 16 16 11 14 13 12 14 12 26 31 33 31 28 26 24 23 19 18 17 14 11 10 8 5 3 3 3 3 3
2 8 9 6 10 13 12 13 15 10 12 8 4 14 19 17 18 10 13 14 13 9 14 19 26 32 33 32 27 24 22 20 17 15 12 8 12 7 7 3 3 3 2 2
8 2 1 9 12 15 15 17 13 13 7 11 4 12 14 18 22 6 12 16 19 20 20 16 21 25 32 32 29 25 22 19 17 15 14 13 10 8 7 5 4 3 3 1
7 5 13 12 11 16 17 15 20 20 11 6 16 5 15 17 13 7 15 15 14 14 13 13 17 22 31 31 27 24 22 21 18 16 14 14 9 8 6 6 4 2 2 2
5 5 8 10 9 12 11 11 17 18 17 4 17 3 14 12 14 16 18 17 17 16 16 16 18 24 27 29 27 25 22 20 18 15 13 12 9 7 8 6 3 3 3 3
12 2 3 3 8 13 7 9 5 5 3 4 12 10 4 11 19 13 14 18 19 17 16 15 20 23 26 28 27 25 24 21 18 16 14 11 10 9 8 5 4 4 4 4
4 2 4 5 4 5 8 6 2 1 1 4 9 10 10 18 14 14 17 19 19 18 16 14 15 20 24 30 29 27 25 22 19 17 14 12 10 8 6 5 6 5 4 6
4 4 4 6 5 3 8 4 1 3 2 3 3 6 11 4 11 18 20 19 18 17 16 16 16 21 25 30 31 29 26 23 20 17 14 12 10 8 7 6 7 6 5 4
2 5 4 7 5 2 2 1 3 2 1 2 2 2 3 6 6 11 12 14 16 16 15 15 15 21 24 28 30 28 25 22 20 17 14 12 9 9 8 6 5 4 3 3
4 5 4 4 4 5 2 2 4 4 4 2 4 4 3 6 5 13 11 12 13 10 11 11 11 21 25 28 25 23 23 21 19 16 14 11 9 8 6 5 5 3 2 3
3 3 7 4 2 2 2 2 3 2 1 2 3 5 2 6 7 20 15 14 15 14 12 10 9 20 24 23 22 21 20 18 19 15 14 11 10 9 7 5 4 3 2 2
3 2 4 6 2 2 2 3 4 2 4 1 2 5 3 5 7 7 13 10 11 12 11 10 13 20 22 22 21 21 19 19 16 14 13 11 10 9 7 6 5 2 1 1
4 2 4 7 5 3 3 3 3 5 2 2 1 5 5 6 8 6 11 11 11 11 12 9 9 12 19 21 21 20 19 17 15 14 14 13 11 10 10 6 4 3 2 1
1 2 3 5 5 4 6 6 2 4 3 5 4 5 4 5 7 8 8 8 9 10 11 8 7 10 20 23 23 21 19 17 16 15 15 14 12 11 8 7 5 3 1 2
3 3 2 7 8 4 5 7 6 2 3 4 5 6 5 6 9 9 8 10 12 11 10 9 9 8 19 22 21 19 17 16 15 16 16 14 11 10 8 6 4 2 2 4
2 3 3 5 3 5 6 8 7 5 4 7 5 2 4 4 7 7 11 11 11 11 10 9 9 12 17 22 21 19 17 16 16 17 15 13 11 9 7 5 3 2 4 6
1 1 3 4 4 5 6 7 7 5 5 2 1 1 3 5 8 10 10 12 12 11 11 11 12 15 21 23 21 19 18 17 17 16 14 12 10 8 6 3 2 4 7 10
2 1 2 4 4 2 5 2 5 9 4 5 2 2 4 4 2 7 7 10 10 10 9 10 13 20 21 20 19 19 17 18 18 15 13 10 8 6 3 2 4 7 10 12
4 0 2 0 2 7 2 1 1 5 4 4 4 5 4 4 3 3 7 9 12 9 9 16 25 24 22 22 21 19 18 17 16 13 11 8 6 3 1 4 7 10 13 15
1 2 2 2 2 3 2 4 3 3 2 5 4 4 4 4 3 3 4 7 8 15 22 23 25 26 23 21 19 20 18 16 14 12 9 6 3 1 4 7 10 12 13 16
0 1 4 2 3 7 3 3 4 3 2 3 2 2 1 3 2 1 5 9 12 19 24 28 28 24 20 19 18 18 16 14 12 9 6 3 1 3 6 9 11 14 16 18
6 4 4 3 3 6 2 1 1 2 1 2 2 2 5 6 6 6 9 10 13 18 21 27 25 22 18 17 18 17 15 12 10 7 3 1 2 5 8 10 13 15 17 19
2 6 3 7 5 4 4 3 1 3 4 2 4 4 6 7 6 7 7 8 9 17 20 25 26 21 16 16 16 17 13 10 7 4 2 2 4 6 8 11 13 16 19 21
3 3 3 2 2 6 5 3 4 3 4 3 4 6 6 8 7 8 7 7 7 17 20 24 24 20 16 16 15 14 11 8 5 2 2 3 6 7 9 11 13 16 19 22
4 4 4 5 8 4 6 6 7 5 6 5 5 5 7 8 8 7 7 7 12 17 20 22 22 20 17 16 13 11 8 5 3 1 3 4 6 9 12 13 15 17 20 19
5 6 4 5 4 3 2 2 5 8 6 7 7 6 6 7 8 8 7 13 17 19 21 21 19 19 16 14 11 8 5 2 1 2 4 6 9 12 14 17 21 20 22 22
Wind_Direction
210 191 213 210 226 259 239 243 258 341 246 234 223 250 253 269 284 212 182 171 170 162 148 155 162 168 170 171 171 168 166 167 161 160 154 165 154 160 151 183 158 143 135 155
181 243 231 236 219 236 248 262 268 280 260 252 251 256 253 268 260 198 189 170 157 139 150 154 159 165 170 171 173 171 171 170 167 162 169 180 167 165 176 181 179 147 175 162
234 179 179 238 249 242 229 238 244 246 276 238 230 268 264 257 241 195 191 171 167 163 163 162 163 164 170 172 174 175 176 171 168 168 173 162 172 151 171 191 188 168 219 209
272 250 248 243 246 231 248 232 243 242 233 235 172 259 211 230 210 190 190 172 165 158 154 157 161 165 173 176 175 178 178 176 174 183 182 183 177 164 172 189 172 166 249 259
257 251 243 240 240 200 253 246 235 230 217 234 177 274 220 207 207 205 189 168 166 166 161 164 171 177 180 180 176 180 181 180 182 183 182 178 172 165 163 166 169 220 238 272
251 194 247 255 281 229 241 307 280 185 134 230 198 188 244 185 202 197 181 169 172 169 170 166 170 172 185 183 180 182 183 184 187 186 185 185 180 174 168 166 199 221 231 254
298 237 246 244 275 222 232 289 336 160 197 225 201 204 236 189 184 185 169 175 176 171 168 165 166 175 176 182 183 183 185 184 188 189 189 189 187 187 185 180 220 228 226 239
320 325 215 179 226 226 190 189 312 330 159 244 135 214 222 181 218 185 170 168 167 169 171 175 176 174 177 180 183 183 186 188 190 192 191 191 193 196 197 207 222 232 242 250
318 284 225 209 250 228 350 79 244 282 296 63 256 272 303 22 195 173 169 152 167 164 168 168 167 169 169 175 183 186 187 189 192 194 192 192 197 200 203 202 224 236 250 282
271 299 276 286 223 250 172 352 28 2 343 270 284 273 218 164 201 165 162 165 163 152 141 148 153 159 168 179 182 185 188 189 190 189 191 192 188 196 184 197 224 243 274 291
258 197 290 339 295 228 191 101 145 118 264 336 304 252 168 231 206 167 173 170 159 152 144 140 133 153 166 172 175 178 181 177 175 181 180 179 187 190 179 194 199 191 233 278
312 277 274 258 258 223 289 209 139 124 330 208 242 283 331 278 160 147 135 132 127 125 125 125 128 140 152 159 164 167 169 167 172 175 176 172 176 169 174 161 162 199 186 109
332 295 338 343 345 347 299 230 158 125 79 213 72 293 340 87 107 100 122 121 122 124 124 122 122 137 148 154 156 156 156 156 156 160 158 153 149 146 146 153 149 138 123 86
107 282 175 209 235 225 303 308 228 127 131 306 234 286 326 87 120 123 123 119 120 130 136 131 131 143 148 149 149 149 148 148 148 149 148 142 139 142 144 141 141 133 81 19
181 257 284 276 260 253 264 281 299 258 154 220 299 319 243 187 158 149 134 128 133 142 143 146 149 147 148 149 149 149 147 149 151 147 143 137 142 143 144 142 132 104 34 353
167 280 315 289 297 254 265 263 277 261 195 253 259 17 320 113 109 126 145 147 151 155 158 153 149 146 151 154 154 150 147 149 155 146 137 140 144 146 141 128 105 40 351 334
273 173 5 273 332 307 293 232 190 212 226 197 332 187 114 121 140 160 160 161 165 166 162 155 158 157 158 157 156 152 152 151 148 141 140 145 145 139 128 106 38 349 341 336
304 261 151 267 349 348 249 325 224 184 236 174 165 94 106 145 145 162 168 160 166 163 154 152 153 158 160 157 154 151 150 147 143 141 142 142 140 135 122 28 352 340 336 336
189 302 300 98 261 279 301 340 237 153 265 2 218 175 139 129 77 55 183 169 167 160 157 154 160 157 151 152 152 149 146 145 143 141 142 141 142 134 19 344 341 341 336 333
40 127 123 354 304 279 290 299 324 304 296 3 45 66 139 137 136 244 327 138 132 139 147 144 148 143 145 149 153 147 141 142 142 148 144 145 143 17 343 342 341 339 332 326
126 218 196 248 278 284 260 307 319 135 218 30 26 39 96 131 206 71 83 66 104 124 126 139 142 143 145 149 151 141 143 143 142 144 148 150 51 355 344 335 336 333 332 327
176 160 209 162 218 285 175 8 23 208 30 57 63 82 99 112 94 76 77 90 105 110 115 132 127 131 140 149 149 140 139 141 145 148 140 78 0 347 338 337 340 336 333 330
245 190 195 180 218 243 197 180 207 170 144 153 120 124 124 117 104 97 97 93 94 108 114 127 128 129 136 146 150 140 143 146 144 140 114 13 350 348 352 343 339 336 337 335
245 171 226 15 280 237 214 192 175 156 135 126 128 137 129 130 128 118 113 109 109 121 127 136 135 130 122 143 146 140 141 143 140 117 39 359 351 350 343 341 341 336 334 332
215 147 200 260 276 269 263 196 177 139 128 114 127 134 138 130 129 129 126 119 119 127 137 142 141 141 139 140 137 138 141 141 131 83 13 358 349 342 338 336 335 332 329 325
193 194 177 223 226 186 216 154 145 156 168 162 141 121 131 135 141 134 129 136 135 138 146 145 145 142 143 145 142 140 138 127 72 28 4 349 336 335 332 329 326 327 327 327